Content
SEND FEEDBACK

Daily
Averages
Monthly
Summary
United States of America

STATEN ISLAND, NEW YORK


Home > North America > United States > New York
Elevation: 152 feet     Latitude: 40 35N     Longitude: 074 09W

WEATHER
 
SELECT A DAY
Number of Records: 189,642;   Date Range: 1/1/95 - 7/29/14
 
SHARE

PRINT THIS DATA

[ ← Previous Day ]
WEATHER ALMANAC - JANUARY 7, 2013
[ Next Day → ]
[ °C ]   °F
Weather ElementAverageHighLow
Temperature40.3 °F46.9 °F (12:51 pm)32 °F (11:51 pm)
Dewpoint23.7 °F28.9 °F (7:51 am)18 °F (3:51 pm)
Humidity53.6 %73 % (4:51 am)34 % (2:51 pm)
Barometer30.30 in30.40 in (6:51 pm)30.09 in (1:51 am)
Wind Speed7.3 mph15 mph (10:51 am)
Wind Gust24.2 mph (12:51 pm)
Weather ElementAverage
Visibility10 mi
Wind DirectionWSW (250.9 °)

Weather ElementTotal
Precipitation---
Heating Degree Days25.6 (Base 65)
Averaged from 23 records on January 7, 2013
WEATHER CONDITIONS BREAKOUT
WIND DIRECTION BREAKOUT
WEATHER BY HOUR - JANUARY 7, 2013
[ °C ]   °F
Local TimeTemperatureDewpointHumidityBarometerVisibilityWind DirectionWind SpeedGust SpeedPrecipitationEventsConditions
1:51 AM37.9 °F27.0 °F65 %30.09 in10.0 miWest (270°)8.1 mphPartly Cloudy
2:51 AM36.0 °F27.0 °F70 %30.10 in10.0 miWest (280°)6.9 mphPartly Cloudy
3:51 AM37.0 °F28.0 °F70 %30.12 in10.0 miWest (260°)6.9 mphPartly Cloudy
4:51 AM36.0 °F28.0 °F73 %30.14 in10.0 miWest (280°)9.2 mphOvercast
5:51 AM35.1 °F27.0 °F72 %30.17 in10.0 miWNW (290°)4.6 mphScattered Clouds
6:51 AM36.0 °F28.0 °F73 %30.22 in10.0 miWest (270°)6.9 mphPartly Cloudy
7:51 AM37.9 °F28.9 °F70 %30.25 in10.0 miWSW (250°)8.1 mphScattered Clouds
8:51 AM39.9 °F28.9 °F65 %30.27 in10.0 miWest (280°)5.8 mphScattered Clouds
9:51 AM44.1 °F27.0 °F51 %30.30 in10.0 miWNW (300°)13.8 mph23.0 mphScattered Clouds
10:51 AM44.6 °F24.8 °F46 %30.32 in10.0 miNW (320°)15.0 mph21.9 mphPartly Cloudy
11:51 AM46.0 °F23.0 °F40 %30.32 in10.0 miWNW (300°)11.5 mph20.7 mphPartly Cloudy
12:51 PM46.9 °F21.9 °F37 %30.33 in10.0 miWNW (300°)15.0 mph24.2 mphPartly Cloudy
1:51 PM46.0 °F19.9 °F35 %30.33 in10.0 miNorth (360°)11.5 mphPartly Cloudy
2:51 PM46.9 °F19.9 °F34 %30.35 in10.0 miWNW (290°)11.5 mph20.7 mphPartly Cloudy
3:51 PM45.0 °F18.0 °F34 %30.37 in10.0 miNW (320°)8.1 mphPartly Cloudy
4:51 PM43.0 °F18.0 °F37 %30.38 in10.0 miNNW (330°)6.9 mphPartly Cloudy
5:51 PM42.1 °F18.0 °F38 %30.39 in10.0 miNW (320°)3.5 mphClear
6:51 PM41.0 °F19.0 °F41 %30.40 in10.0 miNW (310°)4.6 mphClear
7:51 PM39.9 °F21.0 °F47 %30.40 in10.0 miCalmClear
8:51 PM39.9 °F21.0 °F47 %30.39 in10.0 miCalmClear
9:51 PM37.0 °F24.1 °F59 %30.39 in10.0 miCalmClear
10:51 PM36.0 °F23.0 °F59 %30.40 in10.0 miSW (230°)3.5 mphClear
11:51 PM32.0 °F23.0 °F69 %30.40 in10.0 miSSW (210°)6.9 mphClear
Hourly data recorded from KEWR, located miles away from Staten Island, New York







STORIES FROM OUR PARTNERS